Preview of NWS' New Version of Forecast
This preview is not operational and should not be used for support decisions.

Regional Weather Roundup (RWR)

Issued by National Weather Service (NWS)

                            
000
ASUS45 KCYS 200010
RWRWY 

WYOMING REGIONAL WEATHER ROUNDUP
NATIONAL WEATHER SERVICE CHEYENNE WY
600 PM MDT FRI APR 19 2019

NOTE:  "FAIR" INDICATES FEW OR NO CLOUDS BELOW 12,000 FEET
WITH NO SIGNIFICANT WEATHER AND/OR OBSTRUCTIONS TO VISIBILITY.

WYZ001-200100-
...YELLOWSTONE NATIONAL PARK...
  
CITY           SKY/WX    TMP DP  RH WIND       PRES   REMARKS
LK YELLOWSTONE   N/A     52  28  39 VRB7      30.12F                  
6HR MIN TEMP:  43; 6HR MAX TEMP:  55;                                

W YELLOWSTONE  NOT AVBL                                               

$$
WYZ002>013-054>058-071-098>099-200100-
...NORTHERN WYOMING...
  
CITY           SKY/WX    TMP DP  RH WIND       PRES   REMARKS
JACKSON        SUNNY     57  28  33 S13       30.08F                  
CODY           MOSUNNY   73  25  16 W12G18    29.91F                  
GREYBULL       SUNNY     76  29  17 SE10      29.83F                  
6HR MIN TEMP:  68; 6HR MAX TEMP:  78;                                

WORLAND        SUNNY     77  28  16 SE6       29.86F                  
6HR MIN TEMP:  68; 6HR MAX TEMP:  78;                                

SHERIDAN       SUNNY     77  34  21 S3        29.85F                  
6HR MIN TEMP:  73; 6HR MAX TEMP:  79;                                

BUFFALO        SUNNY     73  34  23 SE9       29.92S                  
6HR MIN TEMP:  69; 6HR MAX TEMP:  75;                                

GILLETTE       SUNNY     66  42  41 SW8       29.89S                  
6HR MIN TEMP:  66; 6HR MAX TEMP:  74;                                

HULETT         FAIR      72  34  25 W3        29.89F                  
NEWCASTLE      FAIR      72  30  21 NW10G16   29.91S                  

$$
WYZ014>020-022>026-101>103-200100-
...CENTRAL WYOMING...
  
CITY           SKY/WX    TMP DP  RH WIND       PRES   REMARKS
BIG PINEY      SUNNY     66  22  18 W17       30.09S                  
6HR MIN TEMP:  57; 6HR MAX TEMP:  69;                                

PINEDALE       SUNNY     61  28  29 N10       30.09F                  
DUBOIS         FAIR      61  21  21 W16G22    30.06S                  
LANDER         SUNNY     73  24  16 NW13G28   29.94F                  
6HR MIN TEMP:  65; 6HR MAX TEMP:  74;                                

RIVERTON       SUNNY     73  28  18 SW12G21   29.94F                  
6HR MIN TEMP:  67; 6HR MAX TEMP:  74;                                

CASPER         SUNNY     71  29  21 W13       29.96F                  
6HR MIN TEMP:  65; 6HR MAX TEMP:  72;                                

DOUGLAS        SUNNY     73  32  22 W12       29.95F                  
6HR MIN TEMP:  68; 6HR MAX TEMP:  75;                                


$$
WYZ021-027>030-104>119-200100-
...SOUTHERN WYOMING...
  
CITY           SKY/WX    TMP DP  RH WIND       PRES   REMARKS
EVANSTON       SUNNY     62  27  26 W12       30.12F                  
6HR MIN TEMP:  55; 6HR MAX TEMP:  63;                                

KEMMERER       SUNNY     63  21  20 SW17G24   30.12F                  
FORT BRIDGER   NOT AVBL                                               
ROCK SPRINGS   SUNNY     66  25  21 SW14G33   30.10F                  
6HR MIN TEMP:  57; 6HR MAX TEMP:  67;                                

DIXON          FAIR      68  20  15 SW7G21    30.12F                  
RAWLINS        SUNNY     67  22  18 W16G28    30.07F                  
6HR MIN TEMP:  59; 6HR MAX TEMP:  70;                                

SARATOGA       FAIR      64  23  20 SW12G25   30.12F                  
LARAMIE        SUNNY     65  24  21 W10G21    30.10S                  
6HR MIN TEMP:  59; 6HR MAX TEMP:  68;                                

CHEYENNE       SUNNY     70  25  18 NW14      30.04F                  
6HR MIN TEMP:  63; 6HR MAX TEMP:  71;                                

TORRINGTON     SUNNY     76  31  19 W8G17     29.92F                  
6HR MIN TEMP:  68; 6HR MAX TEMP:  77;                                

PINE BLUFFS    FAIR      72  28  20 N10G17    30.00F                  

$$